Location: Waco, TX
(31.5480°N, 97.1670°W)
Time: 03:08:39
(UTC-05:00)

ISS - Pass Details

Date: 14 September 2017
Orbit: 401 x 407 km, 51.6° (Epoch: 22 September)

Event Time Altitude Azimuth Distance (km) Brightness Sun altitude
Rises 00:23:39 0° 213° (SSW) 2,306 - -52.3°
Reaches altitude 10° 00:25:45 10° 208° (SSW) 1,451 - -52.4°
Maximum altitude 00:28:55 49° 132° (SE) 530 - -52.7°
Drops below altitude 10° 00:32:06 10° 56° (NE) 1,463 - -53.0°
Sets 00:34:13 0° 51° (NE) 2,326 - -53.1°
